• En España
  • Lista de países
  • Para 7 días
  • Temperatura del agua
  • Mapa Satelital
  • El tiempo en el mapa
  • Informadores
  • user-avatar
    Iniciar sesión

    Tiempo cada hora Kalashnikovo

    Hoy, 14 Agosto, Martes

    Tiempo Temperatura Precipitaciones Viento Presión Humedad
    00:00 +18°C° 0,1 mm 2 mps 744 mmHg 93%
    01:00 +19°C° 0,1 mm 1 mps 744 mmHg 94%
    02:00 +18°C° 0 mm 1 mps 744 mmHg 93%
    03:00 +18°C° 0 mm 1 mps 744 mmHg 93%
    04:00 +18°C° 0 mm 1 mps 744 mmHg 94%
    05:00 +18°C° 0 mm 1 mps 744 mmHg 91%
    06:00 +19°C° 0 mm 1 mps 744 mmHg 89%
    07:00 +18°C° 0 mm 2 mps 744 mmHg 86%
    08:00 +19°C° 0 mm 2 mps 745 mmHg 79%
    09:00 +20°C° 0 mm 3 mps 745 mmHg 71%
    10:00 +21°C° 0 mm 3 mps 745 mmHg 65%
    11:00 +21°C° 0 mm 4 mps 745 mmHg 64%
    12:00 +21°C° 0 mm 4 mps 745 mmHg 63%
    13:00 +20°C° 0 mm 4 mps 745 mmHg 62%
    14:00 +20°C° 0 mm 4 mps 745 mmHg 62%
    15:00 +21°C° 0 mm 3 mps 745 mmHg 62%
    16:00 +21°C° 0 mm 3 mps 745 mmHg 62%
    17:00 +20°C° 0,1 mm 3 mps 746 mmHg 68%
    18:00 +19°C° 0,1 mm 2 mps 746 mmHg 73%
    19:00 +18°C° 0,1 mm 2 mps 746 mmHg 79%
    20:00 +17°C° 0 mm 2 mps 746 mmHg 83%
    21:00 +16°C° 0 mm 2 mps 746 mmHg 87%
    22:00 +15°C° 0 mm 2 mps 746 mmHg 91%
    23:00 +14°C° 0 mm 2 mps 747 mmHg 91%

    Mañana, 15 Agosto, Miércoles

    Tiempo Temperatura Precipitaciones Viento Presión Humedad
    00:00 +14°C° 0 mm 2 mps 747 mmHg 92%
    01:00 +13°C° 0 mm 2 mps 747 mmHg 93%
    02:00 +13°C° 0 mm 2 mps 747 mmHg 93%
    03:00 +13°C° 0 mm 2 mps 747 mmHg 93%
    04:00 +12°C° 0 mm 2 mps 748 mmHg 93%
    05:00 +13°C° 0 mm 2 mps 748 mmHg 90%
    06:00 +14°C° 0 mm 2 mps 748 mmHg 87%
    07:00 +14°C° 0 mm 3 mps 748 mmHg 84%
    08:00 +16°C° 0 mm 3 mps 749 mmHg 77%
    09:00 +18°C° 0 mm 4 mps 749 mmHg 70%
    10:00 +20°C° 0 mm 4 mps 749 mmHg 64%
    11:00 +21°C° 0 mm 4 mps 749 mmHg 60%
    12:00 +22°C° 0 mm 4 mps 749 mmHg 57%
    13:00 +23°C° 0 mm 4 mps 749 mmHg 53%
    14:00 +23°C° 0 mm 4 mps 749 mmHg 53%
    15:00 +23°C° 0 mm 4 mps 749 mmHg 53%
    16:00 +23°C° 0 mm 4 mps 749 mmHg 52%
    17:00 +22°C° 0 mm 3 mps 749 mmHg 58%
    18:00 +21°C° 0 mm 3 mps 750 mmHg 64%
    19:00 +20°C° 0 mm 2 mps 750 mmHg 71%
    20:00 +18°C° 0 mm 2 mps 750 mmHg 74%
    21:00 +17°C° 0 mm 2 mps 750 mmHg 78%
    22:00 +16°C° 0 mm 2 mps 750 mmHg 81%
    23:00 +15°C° 0 mm 2 mps 750 mmHg 82%

    Pasado mañana, 16 Agosto, Jueves

    Tiempo Temperatura Precipitaciones Viento Presión Humedad
    00:00 +15°C° 0 mm 2 mps 750 mmHg 83%
    01:00 +14°C° 0 mm 2 mps 750 mmHg 84%
    02:00 +14°C° 0 mm 2 mps 750 mmHg 85%
    03:00 +14°C° 0 mm 2 mps 750 mmHg 86%
    04:00 +13°C° 0 mm 3 mps 750 mmHg 87%
    05:00 +14°C° 0 mm 3 mps 749 mmHg 83%
    06:00 +15°C° 0 mm 4 mps 749 mmHg 80%
    07:00 +16°C° 0 mm 5 mps 748 mmHg 77%
    08:00 +17°C° 0,1 mm 5 mps 748 mmHg 75%
    09:00 +19°C° 0,1 mm 6 mps 747 mmHg 73%
    10:00 +21°C° 0,1 mm 7 mps 747 mmHg 71%
    11:00 +21°C° 0,3 mm 6 mps 747 mmHg 73%
    12:00 +22°C° 0,3 mm 6 mps 747 mmHg 75%
    13:00 +22°C° 0,3 mm 6 mps 746 mmHg 77%
    14:00 +22°C° 0,6 mm 5 mps 746 mmHg 78%
    15:00 +23°C° 0,6 mm 5 mps 746 mmHg 79%
    16:00 +23°C° 0,6 mm 5 mps 746 mmHg 80%
    17:00 +22°C° 0,3 mm 4 mps 746 mmHg 82%
    18:00 +22°C° 0,3 mm 4 mps 746 mmHg 84%
    19:00 +21°C° 0,3 mm 3 mps 746 mmHg 86%
    20:00 +20°C° 0,1 mm 3 mps 746 mmHg 89%
    21:00 +19°C° 0,1 mm 3 mps 746 mmHg 92%
    22:00 +18°C° 0,1 mm 2 mps 746 mmHg 95%
    23:00 +17°C° 0 mm 2 mps 746 mmHg 96%

    17 Agosto, Viernes

    Tiempo Temperatura Precipitaciones Viento Presión Humedad
    00:00 +17°C° 0 mm 2 mps 746 mmHg 97%
    01:00 +16°C° 0 mm 2 mps 747 mmHg 97%
    02:00 +16°C° 0 mm 2 mps 747 mmHg 97%
    03:00 +15°C° 0 mm 2 mps 747 mmHg 97%
    04:00 +13°C° 0 mm 3 mps 747 mmHg 97%
    05:00 +13°C° 0 mm 3 mps 748 mmHg 95%
    06:00 +13°C° 0 mm 3 mps 748 mmHg 93%
    07:00 +13°C° 0 mm 3 mps 748 mmHg 92%
    08:00 +14°C° 0 mm 3 mps 749 mmHg 84%
    09:00 +17°C° 0 mm 4 mps 749 mmHg 77%
    10:00 +18°C° 0 mm 4 mps 749 mmHg 70%
    11:00 +19°C° 0 mm 4 mps 749 mmHg 65%
    12:00 +20°C° 0 mm 4 mps 749 mmHg 60%
    13:00 +21°C° 0 mm 4 mps 749 mmHg 55%
    14:00 +21°C° 0,3 mm 4 mps 749 mmHg 57%
    15:00 +21°C° 0,3 mm 4 mps 749 mmHg 59%
    16:00 +20°C° 0,3 mm 4 mps 750 mmHg 61%
    17:00 +19°C° 0,4 mm 4 mps 750 mmHg 67%
    18:00 +18°C° 0,4 mm 3 mps 750 mmHg 72%
    19:00 +17°C° 0,4 mm 3 mps 750 mmHg 78%
    20:00 +16°C° 0,1 mm 3 mps 750 mmHg 82%
    21:00 +14°C° 0,1 mm 2 mps 751 mmHg 87%
    22:00 +13°C° 0,1 mm 2 mps 751 mmHg 91%
    23:00 +12°C° 0 mm 2 mps 751 mmHg 92%

    18 Agosto, Sábado

    Tiempo Temperatura Precipitaciones Viento Presión Humedad
    00:00 +12°C° 0 mm 2 mps 751 mmHg 93%
    01:00 +10°C° 0 mm 2 mps 751 mmHg 95%
    02:00 +10°C° 0 mm 2 mps 752 mmHg 95%
    03:00 +9°C° 0 mm 3 mps 752 mmHg 95%
    04:00 +9°C° 0 mm 3 mps 752 mmHg 95%
    05:00 +9°C° 0 mm 3 mps 753 mmHg 93%
    06:00 +10°C° 0 mm 3 mps 753 mmHg 91%
    07:00 +10°C° 0 mm 3 mps 753 mmHg 88%
    08:00 +12°C° 0 mm 4 mps 753 mmHg 80%
    09:00 +13°C° 0 mm 4 mps 753 mmHg 72%
    10:00 +15°C° 0 mm 4 mps 754 mmHg 65%
    11:00 +15°C° 0 mm 4 mps 753 mmHg 61%
    12:00 +17°C° 0 mm 4 mps 753 mmHg 58%
    13:00 +18°C° 0 mm 4 mps 753 mmHg 55%
    14:00 +17°C° 0 mm 4 mps 753 mmHg 56%
    15:00 +17°C° 0 mm 4 mps 753 mmHg 58%
    16:00 +15°C° 0 mm 4 mps 753 mmHg 59%
    17:00 +16°C° 0 mm 3 mps 754 mmHg 63%
    18:00 +14°C° 0 mm 3 mps 754 mmHg 66%
    19:00 +14°C° 0 mm 2 mps 754 mmHg 70%
    20:00 +13°C° 0 mm 2 mps 754 mmHg 73%
    21:00 +12°C° 0 mm 2 mps 754 mmHg 77%
    22:00 +10°C° 0 mm 2 mps 754 mmHg 80%
    23:00 +9°C° 0 mm 2 mps 754 mmHg 82%

    19 Agosto, Domingo

    Tiempo Temperatura Precipitaciones Viento Presión Humedad
    00:00 +9°C° 0 mm 2 mps 755 mmHg 84%
    01:00 +8°C° 0 mm 2 mps 755 mmHg 87%
    02:00 +8°C° 0 mm 2 mps 755 mmHg 88%
    03:00 +8°C° 0 mm 2 mps 755 mmHg 89%
    04:00 +7°C° 0 mm 2 mps 755 mmHg 90%
    05:00 +8°C° 0 mm 2 mps 755 mmHg 87%
    06:00 +9°C° 0 mm 2 mps 756 mmHg 83%
    07:00 +10°C° 0 mm 2 mps 756 mmHg 80%
    08:00 +13°C° 0 mm 2 mps 756 mmHg 73%
    09:00 +15°C° 0 mm 2 mps 756 mmHg 66%
    10:00 +17°C° 0 mm 2 mps 756 mmHg 59%
    11:00 +17°C° 0 mm 2 mps 755 mmHg 55%
    12:00 +18°C° 0 mm 2 mps 755 mmHg 52%
    13:00 +19°C° 0 mm 2 mps 755 mmHg 48%
    14:00 +20°C° 0 mm 2 mps 755 mmHg 47%
    15:00 +20°C° 0 mm 2 mps 754 mmHg 47%
    16:00 +20°C° 0 mm 2 mps 754 mmHg 47%
    17:00 +20°C° 0 mm 1 mps 754 mmHg 53%
    18:00 +19°C° 0 mm 1 mps 754 mmHg 59%
    19:00 +16°C° 0 mm 1 mps 754 mmHg 65%
    20:00 +15°C° 0 mm 1 mps 754 mmHg 68%
    21:00 +14°C° 0 mm 1 mps 754 mmHg 71%
    22:00 +12°C° 0 mm 1 mps 754 mmHg 74%
    23:00 +12°C° 0 mm 1 mps 754 mmHg 75%
    Mostrar más